SL-23 R/B, 34112

Orbit data source: Space-Track

SL-23 R/B, 34112 is space debris in HEO originally from a launch on Thu, 26 Feb 2009 UTC launched from the Tyuratam Missile And Space Complex (TTMTR). Debris objects in space refer to the collection of defunct objects orbiting the Earth. Examples of debris include non-operational satellites, rocket bodies, and fragments generated from explosions, collisions, or faulty payload assembly.

Loading next visibility...
Identifier
34112, 2009-009B
Orbit
HEO
Last TLE update
15 hours ago
Origin
Flag of CISSpace International Services (CIS)
Manufacturer
RKKE
Mission
Spacecraft
Bus & Motor
BLOK DM2, 11D58M
Mass
2,540 kg wet, 2,540 kg dry
Launch date (UTC)
2009-02-26 (16 years ago)
Launch vehicle
Unknown
Launch site
Tyuratam Missile And Space Complex (TTMTR)
Object type
Payload
Rocket body
Debris
Shape & HBR
Cyl + 1 Nozzle, 3.0 m
Radar Cross Section
22.521 m², Large (>1 m²)

Expand to show TLE details & history

TLE from 15 hours ago
0 SL-23 R/B
1 34112U 09009B   25199.36410539 -.00000068  00000-0  00000-0 0  9991
2 34112  35.2311 352.7953 6893687  49.1282 354.3072  2.20446242132001
Epoch: 2025-07-18T08:44Z
TLE epoch observation values (Epoch: 2025-07-18T08:44:18.705Z)
Latitude
5.04422°
Longitude
-67.57717°
Altitude
2,220.462 km
Speed
8.76 km/s
True Right ascension
23h 59m 40s
True Declination
5° 01' 09"
Sunlit
Object was in daylight at epoch
Visualization orbit readout
Latitude
-19.38325°
Longitude
134.98213°
Altitude
33,019.824 km
Speed
2.062 km/s
Apparent Right ascension
13h 39m 39s
Apparent Declination
-27° 47' 57"
Sunlit
Object is in daylight
Visualization observer readout
Local Sidereal Time
12:24:19
Azimuth
162.304° S
Elevation
20.053°
Doppler factor
1
Orbital elements
Apogee altitude
35,755.79 km
Perigee altitude
1,369.205 km
Semi-major axis
24,940.634 km
Eccentricity
0.68937
Inclination
35.2311°
RAAN
352.7953°
Arg. of periapsis
49.1282°
True anomaly
320.07842°
Mean anomaly
354.3072°
Eccentric anomaly
342.29571°
Mean motion
0.55104 °/min
Orbital period
653.31 mins
BSTAR
0
Loading maneuver chart data...
Loading SW <> Apogee altitude chart data...
Loading historical data...
Loading historical data...
Loading historical data...
Loading historical data...
Loading historical data...
Loading historical data...
Loading historical data...
Other satellites on launch #9 in the year 2009 (2009-02-26 UTC)
|